User: anonymous   Login
Location: ????????
(38.4362°N, 22.8767°E)
Time: 19:53:57
(UTC+00:00)
Language:

ATLAS 2AS CENTAUR R/B - Orbit

View from above orbital plane
View from above orbital plane
View from above satellite
View from above satellite

Ground track
Ground track

The orbit data is extracted from the following two-line orbital elements,

1 28096U 03054B   24166.49198427 -.00000030  00000-0  99233-4 0  9994
2 28096  63.6794  84.8661 0118154 169.5080 190.8454 13.40974936  4162
Epoch (UTC): 14 June 2024 11:48:27
Eccentricity: 0.0118154
inclination: 63.6794°
perigee height: 1017 km
apogee height: 1194 km
right ascension of ascending node: 84.8661°
argument of perigee: 169.5080°
revolutions per day: 13.40974936
mean anomaly at epoch: 190.8454°
orbit number at epoch: 416

The dashed part of the orbit path shows where the satellite is in the earth's shadow,  

DLR